Time,TemperatureF,DewpointF,PressureIn,WindDirection,WindDirectionDegrees,WindSpeedMPH,WindSpeedGustMPH,Humidity,HourlyPrecipIn,Conditions,Clouds,dailyrainin,SoftwareType,DateUTC
2013-02-05 00:01:00,6.0,0.0,29.92,North,0,0.0,0.0,77,0.00,,,0.00,,2013-02-05 06:01:00,
2013-02-05 00:11:00,6.0,0.0,29.92,North,0,0.0,0.0,77,0.00,,,0.00,,2013-02-05 06:11:00,
2013-02-05 00:21:00,6.0,0.0,29.92,North,0,0.0,0.0,77,0.00,,,0.00,,2013-02-05 06:21:00,
2013-02-05 00:32:00,5.0,-1.0,29.91,North,0,0.0,0.0,77,0.00,,,0.00,,2013-02-05 06:32:00,
2013-02-05 00:42:00,5.0,-1.0,29.91,North,0,0.0,0.0,77,0.00,,,0.00,,2013-02-05 06:42:00,
2013-02-05 00:52:00,5.0,-1.0,29.90,North,0,0.0,0.0,77,0.00,,,0.00,,2013-02-05 06:52:00,
2013-02-05 01:01:00,5.0,-1.0,29.90,North,0,0.0,0.0,77,0.00,,,0.00,,2013-02-05 07:01:00,
2013-02-05 01:11:00,5.0,-1.0,29.90,North,0,0.0,0.0,77,0.00,,,0.00,,2013-02-05 07:11:00,
2013-02-05 01:22:00,5.0,-1.0,29.88,North,0,0.0,0.0,77,0.00,,,0.00,,2013-02-05 07:22:00,
2013-02-05 01:31:00,5.0,-1.0,29.88,North,0,0.0,0.0,77,0.00,,,0.00,,2013-02-05 07:31:00,
2013-02-05 01:41:00,5.0,-1.0,29.88,North,0,0.0,0.0,77,0.00,,,0.00,,2013-02-05 07:41:00,
2013-02-05 01:52:00,4.0,-2.0,29.88,North,0,0.0,0.0,77,0.00,,,0.00,,2013-02-05 07:52:00,
2013-02-05 02:01:00,4.0,-2.0,29.88,North,0,0.0,0.0,77,0.00,,,0.00,,2013-02-05 08:01:00,
2013-02-05 02:11:00,4.0,-2.0,29.88,North,0,0.0,0.0,77,0.00,,,0.00,,2013-02-05 08:11:00,
2013-02-05 02:21:00,4.0,-2.0,29.88,North,0,0.0,0.0,77,0.00,,,0.00,,2013-02-05 08:21:00,
2013-02-05 02:31:00,3.0,-3.0,29.87,North,0,0.0,0.0,77,0.00,,,0.00,,2013-02-05 08:31:00,
2013-02-05 02:41:00,3.0,-3.0,29.87,North,0,0.0,0.0,77,0.00,,,0.00,,2013-02-05 08:41:00,
2013-02-05 02:52:00,3.0,-3.0,29.87,North,0,0.0,0.0,77,0.00,,,0.00,,2013-02-05 08:52:00,
2013-02-05 03:02:00,3.0,-3.0,29.86,North,0,0.0,0.0,77,0.00,,,0.00,,2013-02-05 09:02:00,
2013-02-05 03:11:00,3.0,-3.0,29.86,North,0,0.0,0.0,77,0.00,,,0.00,,2013-02-05 09:11:00,
2013-02-05 03:21:00,3.0,-3.0,29.86,North,0,0.0,0.0,77,0.00,,,0.00,,2013-02-05 09:21:00,
2013-02-05 03:31:00,3.0,-3.0,29.86,North,0,0.0,0.0,77,0.00,,,0.00,,2013-02-05 09:31:00,
2013-02-05 03:42:00,3.0,-3.0,29.86,North,0,0.0,0.0,77,0.00,,,0.00,,2013-02-05 09:42:00,
2013-02-05 03:52:00,5.0,-1.0,29.86,North,0,0.0,0.0,77,0.00,,,0.00,,2013-02-05 09:52:00,
2013-02-05 04:02:00,6.0,0.0,29.86,North,0,0.0,1.0,77,0.00,,,0.00,,2013-02-05 10:02:00,
2013-02-05 04:11:00,7.0,1.0,29.85,North,0,0.0,2.0,77,0.00,,,0.00,,2013-02-05 10:11:00,
2013-02-05 04:21:00,7.0,1.0,29.85,North,0,0.0,2.0,77,0.00,,,0.00,,2013-02-05 10:21:00,
2013-02-05 04:31:00,8.0,2.0,29.84,North,0,0.0,0.0,77,0.00,,,0.00,,2013-02-05 10:31:00,
2013-02-05 04:42:00,8.0,2.0,29.84,North,0,0.0,0.0,77,0.00,,,0.00,,2013-02-05 10:42:00,
2013-02-05 04:52:00,8.0,2.0,29.85,North,0,0.0,0.0,77,0.00,,,0.00,,2013-02-05 10:52:00,
2013-02-05 05:01:00,8.0,2.0,29.84,North,0,0.0,0.0,77,0.00,,,0.00,,2013-02-05 11:01:00,
2013-02-05 05:11:00,8.0,2.0,29.84,North,0,0.0,0.0,77,0.00,,,0.00,,2013-02-05 11:11:00,
2013-02-05 05:22:00,9.0,3.0,29.84,North,0,0.0,1.0,77,0.00,,,0.00,,2013-02-05 11:22:00,
2013-02-05 05:32:00,9.0,3.0,29.83,North,0,0.0,1.0,77,0.00,,,0.00,,2013-02-05 11:32:00,
2013-02-05 05:41:00,9.0,3.0,29.83,North,0,0.0,1.0,77,0.00,,,0.00,,2013-02-05 11:41:00,
2013-02-05 05:52:00,10.0,4.0,29.82,North,0,0.0,0.0,77,0.00,,,0.00,,2013-02-05 11:52:00,
2013-02-05 06:01:00,10.0,4.0,29.81,North,0,0.0,3.0,76,0.00,,,0.00,,2013-02-05 12:01:00,
2013-02-05 06:12:00,10.0,4.0,29.81,North,0,0.0,3.0,76,0.00,,,0.00,,2013-02-05 12:12:00,
2013-02-05 06:21:00,10.0,4.0,29.79,North,0,0.0,4.0,75,0.00,,,0.00,,2013-02-05 12:21:00,
2013-02-05 06:32:00,11.0,5.0,29.78,South,187,1.0,6.0,75,0.00,,,0.00,,2013-02-05 12:32:00,
2013-02-05 06:42:00,11.0,5.0,29.78,South,187,1.0,6.0,75,0.00,,,0.00,,2013-02-05 12:42:00,
2013-02-05 06:52:00,11.0,5.0,29.79,North,0,0.0,5.0,75,0.00,,,0.00,,2013-02-05 12:52:00,
2013-02-05 07:01:00,12.0,6.0,29.80,North,0,0.0,5.0,75,0.00,,,0.00,,2013-02-05 13:01:00,
2013-02-05 07:12:00,12.0,6.0,29.79,North,0,0.0,4.0,75,0.00,,,0.00,,2013-02-05 13:12:00,
2013-02-05 07:21:00,12.0,6.0,29.79,North,0,0.0,4.0,75,0.00,,,0.00,,2013-02-05 13:21:00,
2013-02-05 07:31:00,12.0,6.0,29.78,North,0,0.0,2.0,75,0.00,,,0.00,,2013-02-05 13:31:00,
2013-02-05 07:42:00,12.0,6.0,29.78,North,0,0.0,2.0,75,0.00,,,0.00,,2013-02-05 13:42:00,
2013-02-05 07:52:00,13.0,7.0,29.78,North,0,0.0,5.0,75,0.00,,,0.00,,2013-02-05 13:52:00,
2013-02-05 08:01:00,14.0,7.0,29.78,North,0,0.0,4.0,74,0.00,,,0.00,,2013-02-05 14:01:00,
2013-02-05 08:12:00,14.0,7.0,29.78,North,0,0.0,4.0,74,0.00,,,0.00,,2013-02-05 14:12:00,
2013-02-05 08:21:00,14.0,7.0,29.77,North,0,0.0,5.0,74,0.00,,,0.00,,2013-02-05 14:21:00,
2013-02-05 08:31:00,14.0,7.0,29.77,North,0,0.0,5.0,74,0.00,,,0.00,,2013-02-05 14:31:00,
2013-02-05 08:42:00,14.0,7.0,29.77,North,0,0.0,5.0,74,0.00,,,0.00,,2013-02-05 14:42:00,
2013-02-05 08:52:00,16.0,9.0,29.76,WSW,238,3.0,9.0,74,0.00,,,0.00,,2013-02-05 14:52:00,
2013-02-05 09:02:00,17.0,10.0,29.77,SW,233,1.0,9.0,74,0.00,,,0.00,,2013-02-05 15:02:00,
2013-02-05 09:11:00,17.0,10.0,29.77,SW,233,1.0,9.0,74,0.00,,,0.00,,2013-02-05 15:11:00,
2013-02-05 09:21:00,17.0,10.0,29.77,WSW,250,2.0,9.0,74,0.00,,,0.00,,2013-02-05 15:21:00,
2013-02-05 09:32:00,18.0,11.0,29.76,WSW,241,2.0,9.0,74,0.00,,,0.00,,2013-02-05 15:32:00,
2013-02-05 09:41:00,18.0,11.0,29.76,WSW,241,2.0,9.0,74,0.00,,,0.00,,2013-02-05 15:41:00,
2013-02-05 09:52:00,19.0,12.0,29.76,WSW,251,2.0,8.0,74,0.00,,,0.00,,2013-02-05 15:52:00,
2013-02-05 10:01:00,19.0,12.0,29.76,SW,235,3.0,9.0,74,0.00,,,0.00,,2013-02-05 16:01:00,
2013-02-05 10:11:00,19.0,12.0,29.76,SW,235,3.0,9.0,74,0.00,,,0.00,,2013-02-05 16:11:00,
2013-02-05 10:22:00,19.0,12.0,29.75,WSW,253,1.0,8.0,73,0.00,,,0.00,,2013-02-05 16:22:00,
2013-02-05 10:32:00,20.0,13.0,29.74,WSW,245,4.0,9.0,73,0.00,,,0.00,,2013-02-05 16:32:00,
2013-02-05 10:42:00,20.0,13.0,29.74,WSW,245,4.0,9.0,73,0.00,,,0.00,,2013-02-05 16:42:00,
2013-02-05 10:52:00,20.0,13.0,29.74,WSW,245,4.0,9.0,73,0.00,,,0.00,,2013-02-05 16:52:00,
2013-02-05 11:01:00,20.0,13.0,29.76,WSW,243,2.0,9.0,73,0.00,,,0.00,,2013-02-05 17:01:00,
2013-02-05 11:11:00,20.0,13.0,29.76,WSW,243,2.0,9.0,73,0.00,,,0.00,,2013-02-05 17:11:00,
2013-02-05 11:22:00,21.0,14.0,29.77,North,0,0.0,7.0,73,0.00,,,0.00,,2013-02-05 17:22:00,
2013-02-05 11:32:00,21.0,13.0,29.77,WSW,252,3.0,10.0,72,0.00,,,0.00,,2013-02-05 17:32:00,
2013-02-05 11:42:00,21.0,13.0,29.77,WSW,252,3.0,10.0,72,0.00,,,0.00,,2013-02-05 17:42:00,
2013-02-05 11:52:00,22.0,14.0,29.77,WSW,258,1.0,6.0,72,0.00,,,0.00,,2013-02-05 17:52:00,
2013-02-05 12:01:00,22.0,14.0,29.76,West,268,1.0,7.0,72,0.00,,,0.00,,2013-02-05 18:01:00,
2013-02-05 12:11:00,22.0,14.0,29.76,West,268,1.0,7.0,72,0.00,,,0.00,,2013-02-05 18:11:00,
2013-02-05 12:21:00,22.0,14.0,29.76,West,262,1.0,7.0,72,0.00,,,0.00,,2013-02-05 18:21:00,
2013-02-05 12:32:00,23.0,15.0,29.75,West,260,1.0,9.0,72,0.00,,,0.00,,2013-02-05 18:32:00,
2013-02-05 12:42:00,23.0,15.0,29.75,West,260,1.0,9.0,72,0.00,,,0.00,,2013-02-05 18:42:00,
2013-02-05 12:52:00,24.0,16.0,29.75,West,275,1.0,6.0,72,0.00,,,0.00,,2013-02-05 18:52:00,
2013-02-05 13:02:00,24.0,16.0,29.76,West,265,3.0,10.0,72,0.00,,,0.00,,2013-02-05 19:02:00,
2013-02-05 13:11:00,24.0,16.0,29.76,West,265,3.0,10.0,72,0.00,,,0.00,,2013-02-05 19:11:00,
2013-02-05 13:21:00,24.0,16.0,29.76,West,279,1.0,7.0,72,0.00,,,0.00,,2013-02-05 19:21:00,
2013-02-05 13:32:00,25.0,18.0,29.76,West,270,1.0,8.0,73,0.00,,,0.00,,2013-02-05 19:32:00,
2013-02-05 13:42:00,25.0,18.0,29.76,West,270,1.0,8.0,73,0.00,,,0.00,,2013-02-05 19:42:00,
2013-02-05 13:52:00,25.0,17.0,29.77,WSW,258,1.0,8.0,72,0.00,,,0.00,,2013-02-05 19:52:00,
2013-02-05 14:01:00,26.0,19.0,29.78,West,270,1.0,11.0,73,0.00,,,0.00,,2013-02-05 20:01:00,
2013-02-05 14:11:00,26.0,19.0,29.78,West,270,1.0,11.0,73,0.00,,,0.00,,2013-02-05 20:11:00,
2013-02-05 14:21:00,26.0,19.0,29.78,WSW,256,2.0,6.0,73,0.00,,,0.00,,2013-02-05 20:21:00,
2013-02-05 14:32:00,26.0,18.0,29.78,North,0,0.0,9.0,72,0.00,,,0.00,,2013-02-05 20:32:00,
2013-02-05 14:42:00,26.0,18.0,29.78,North,0,0.0,9.0,72,0.00,,,0.00,,2013-02-05 20:42:00,
2013-02-05 14:52:00,27.0,20.0,29.78,West,278,3.0,9.0,73,0.00,,,0.00,,2013-02-05 20:52:00,
2013-02-05 15:01:00,27.0,20.0,29.79,West,273,3.0,9.0,73,0.00,,,0.00,,2013-02-05 21:01:00,
2013-02-05 15:11:00,27.0,20.0,29.79,West,273,3.0,9.0,73,0.00,,,0.00,,2013-02-05 21:11:00,
2013-02-05 15:22:00,27.0,20.0,29.81,WNW,284,3.0,10.0,73,0.00,,,0.00,,2013-02-05 21:22:00,
2013-02-05 15:32:00,27.0,20.0,29.82,West,266,2.0,7.0,73,0.00,,,0.00,,2013-02-05 21:32:00,
2013-02-05 15:42:00,27.0,20.0,29.82,West,266,2.0,7.0,73,0.00,,,0.00,,2013-02-05 21:42:00,
2013-02-05 15:52:00,27.0,20.0,29.83,West,280,1.0,6.0,73,0.00,,,0.00,,2013-02-05 21:52:00,
2013-02-05 16:01:00,27.0,20.0,29.81,North,0,0.0,7.0,73,0.00,,,0.00,,2013-02-05 22:01:00,
2013-02-05 16:11:00,27.0,20.0,29.81,North,0,0.0,7.0,73,0.00,,,0.00,,2013-02-05 22:11:00,
2013-02-05 16:21:00,27.0,20.0,29.83,West,270,2.0,6.0,73,0.00,,,0.00,,2013-02-05 22:21:00,
2013-02-05 16:32:00,27.0,19.0,29.84,West,270,1.0,5.0,72,0.00,,,0.00,,2013-02-05 22:32:00,
2013-02-05 16:42:00,27.0,19.0,29.84,West,270,1.0,5.0,72,0.00,,,0.00,,2013-02-05 22:42:00,
2013-02-05 16:52:00,27.0,19.0,29.85,WNW,286,1.0,7.0,72,0.00,,,0.00,,2013-02-05 22:52:00,
2013-02-05 17:02:00,28.0,20.0,29.85,North,0,0.0,7.0,72,0.00,,,0.00,,2013-02-05 23:02:00,
2013-02-05 17:11:00,28.0,20.0,29.85,North,0,0.0,7.0,72,0.00,,,0.00,,2013-02-05 23:11:00,
2013-02-05 17:21:00,28.0,20.0,29.87,WNW,287,1.0,7.0,72,0.00,,,0.00,,2013-02-05 23:21:00,
2013-02-05 17:32:00,28.0,20.0,29.88,NW,304,2.0,9.0,73,0.00,,,0.00,,2013-02-05 23:32:00,
2013-02-05 17:42:00,28.0,20.0,29.88,NW,304,2.0,9.0,73,0.00,,,0.00,,2013-02-05 23:42:00,
2013-02-05 17:52:00,28.0,20.0,29.89,WNW,303,3.0,7.0,73,0.00,,,0.00,,2013-02-05 23:52:00,
2013-02-05 18:02:00,28.0,20.0,29.90,WNW,300,3.0,9.0,73,0.00,,,0.00,,2013-02-06 00:02:00,
2013-02-05 18:11:00,28.0,20.0,29.90,WNW,300,3.0,9.0,73,0.00,,,0.00,,2013-02-06 00:11:00,
2013-02-05 18:21:00,28.0,20.0,29.91,WNW,301,2.0,7.0,73,0.00,,,0.00,,2013-02-06 00:21:00,
2013-02-05 18:32:00,28.0,20.0,29.92,WNW,301,2.0,8.0,73,0.00,,,0.00,,2013-02-06 00:32:00,
2013-02-05 18:42:00,28.0,20.0,29.92,WNW,301,2.0,8.0,73,0.00,,,0.00,,2013-02-06 00:42:00,
2013-02-05 18:52:00,27.0,20.0,29.93,North,0,0.0,6.0,73,0.00,,,0.00,,2013-02-06 00:52:00,
2013-02-05 19:02:00,27.0,20.0,29.94,WNW,287,1.0,6.0,73,0.00,,,0.00,,2013-02-06 01:02:00,
2013-02-05 19:11:00,27.0,20.0,29.94,WNW,287,1.0,6.0,73,0.00,,,0.00,,2013-02-06 01:11:00,
2013-02-05 19:22:00,27.0,20.0,29.95,WNW,300,1.0,6.0,74,0.00,,,0.00,,2013-02-06 01:22:00,
2013-02-05 19:32:00,27.0,20.0,29.95,WNW,300,2.0,8.0,74,0.00,,,0.00,,2013-02-06 01:32:00,
2013-02-05 19:42:00,27.0,20.0,29.95,WNW,300,2.0,8.0,74,0.00,,,0.00,,2013-02-06 01:42:00,
2013-02-05 19:53:00,26.0,19.0,29.96,WNW,301,2.0,8.0,74,0.00,,,0.00,,2013-02-06 01:53:00,
2013-02-05 20:01:00,26.0,19.0,29.97,North,0,0.0,5.0,74,0.00,,,0.00,,2013-02-06 02:01:00,
2013-02-05 20:11:00,26.0,19.0,29.97,North,0,0.0,5.0,74,0.00,,,0.00,,2013-02-06 02:11:00,
2013-02-05 20:22:00,25.0,18.0,29.99,North,0,0.0,5.0,74,0.00,,,0.00,,2013-02-06 02:22:00,
2013-02-05 20:32:00,25.0,18.0,29.99,North,0,0.0,5.0,74,0.00,,,0.00,,2013-02-06 02:32:00,
2013-02-05 20:42:00,25.0,18.0,29.99,North,0,0.0,5.0,74,0.00,,,0.00,,2013-02-06 02:42:00,
2013-02-05 20:52:00,24.0,17.0,30.00,North,0,0.0,5.0,74,0.00,,,0.00,,2013-02-06 02:52:00,
2013-02-05 21:02:00,24.0,17.0,30.01,North,0,0.0,5.0,74,0.00,,,0.00,,2013-02-06 03:02:00,
2013-02-05 21:12:00,24.0,17.0,30.01,North,0,0.0,5.0,74,0.00,,,0.00,,2013-02-06 03:12:00,
2013-02-05 21:22:00,24.0,17.0,30.01,North,0,0.0,2.0,75,0.00,,,0.00,,2013-02-06 03:22:00,
2013-02-05 21:32:00,23.0,16.0,30.02,WNW,301,2.0,8.0,75,0.00,,,0.00,,2013-02-06 03:32:00,
2013-02-05 21:42:00,23.0,16.0,30.02,WNW,301,2.0,8.0,75,0.00,,,0.00,,2013-02-06 03:42:00,
2013-02-05 21:53:00,23.0,16.0,30.03,North,0,0.0,4.0,75,0.00,,,0.00,,2013-02-06 03:53:00,
2013-02-05 22:02:00,23.0,16.0,30.04,North,0,0.0,5.0,75,0.00,,,0.00,,2013-02-06 04:02:00,
2013-02-05 22:11:00,23.0,16.0,30.04,North,0,0.0,5.0,75,0.00,,,0.00,,2013-02-06 04:11:00,
2013-02-05 22:21:00,23.0,16.0,30.04,North,0,0.0,5.0,75,0.00,,,0.00,,2013-02-06 04:21:00,
2013-02-05 22:31:00,22.0,15.0,30.04,North,0,0.0,0.0,75,0.00,,,0.00,,2013-02-06 04:31:00,
2013-02-05 22:42:00,22.0,15.0,30.04,North,0,0.0,0.0,75,0.00,,,0.00,,2013-02-06 04:42:00,
2013-02-05 22:52:00,22.0,15.0,30.05,North,0,0.0,5.0,75,0.00,,,0.00,,2013-02-06 04:52:00,
2013-02-05 23:01:00,21.0,14.0,30.04,North,0,0.0,0.0,75,0.00,,,0.00,,2013-02-06 05:01:00,
2013-02-05 23:12:00,21.0,14.0,30.04,North,0,0.0,0.0,75,0.00,,,0.00,,2013-02-06 05:12:00,
2013-02-05 23:22:00,21.0,14.0,30.05,North,0,0.0,1.0,75,0.00,,,0.00,,2013-02-06 05:22:00,
2013-02-05 23:31:00,20.0,13.0,30.06,North,0,0.0,0.0,75,0.00,,,0.00,,2013-02-06 05:31:00,
2013-02-05 23:41:00,20.0,13.0,30.06,North,0,0.0,0.0,75,0.00,,,0.00,,2013-02-06 05:41:00,
2013-02-05 23:53:00,19.0,12.0,30.07,North,0,0.0,0.0,75,0.00,,,0.00,,2013-02-06 05:53:00,